EW3966 Weather Reports


Display with metric or nautical units.
time (UTC)temp
F
wind
direction
speed
MPH
gust
MPH
rain 1hr
in
rain 24hr
in
rain mn
in
humidity
%
barometer
mb
20260906125518 59 60 13.0 24.0 0.01 0.26 0.25 97 1001.7
20260906124518 59 81 13.0 25.0 0.01 0.26 0.25 97 1001.6
20260906124018 59 78 11.0 24.0 0.01 0.26 0.25 97 1001.6
20260906123520 59 71 15.0 24.0 0.01 0.26 0.25 97 1001.6
20260906123029 59 74 14.0 24.0 0.01 0.26 0.25 97 1001.5
20260906122522 59 63 16.0 24.0 0.01 0.26 0.25 97 1001.4
20260906122018 59 43 15.0 28.0 0.01 0.26 0.25 97 1001.4
20260906121516 59 83 18.0 28.0 0.01 0.26 0.25 97 1001.3
20260906121014 59 65 16.0 25.0 0.01 0.26 0.25 97 1001.3
20260906120514 59 70 17.0 25.0 0.01 0.26 0.25 97 1001.3
20260906120012 59 99 15.0 25.0 0.01 0.26 0.25 97 1001.3
20260906115511 59 64 18.0 26.0 0.00 0.25 0.24 97 1001.2
20260906114510 59 53 18.0 26.0 0.00 0.25 0.24 97 1001.1
20260906114008 59 8 16.0 27.0 0.00 0.25 0.24 97 1001.1
20260906113506 59 52 15.0 26.0 0.00 0.25 0.24 97 1001.1
20260906113011 59 66 15.0 29.0 0.00 0.25 0.24 97 1000.9
20260906112505 59 49 18.0 30.0 0.00 0.25 0.24 97 1000.9
20260906112003 59 69 19.0 30.0 0.00 0.25 0.24 97 1000.8
20260906111504 59 88 18.0 30.0 0.00 0.25 0.24 97 1000.7
20260906111002 59 56 17.0 28.0 0.00 0.25 0.24 97 1000.7
20260906110502 59 63 19.0 27.0 0.00 0.25 0.24 97 1000.5
20260906110002 59 52 16.0 27.0 0.00 0.25 0.24 97 1000.6
20260906105501 59 93 19.0 32.0 0.00 0.25 0.24 97 1000.4
20260906104502 59 62 19.0 30.0 0.00 0.25 0.24 97 1000.5
20260906104100 59 79 19.0 31.0 0.00 0.25 0.24 97 1000.4
20260906103600 59 58 19.0 31.0 0.00 0.25 0.24 97 1000.3
20260906103103 59 82 18.0 30.0 0.00 0.25 0.24 97 1000.3
20260906102558 59 58 20.0 30.0 0.00 0.25 0.24 97 1000.3
20260906102056 59 62 18.0 30.0 0.00 0.25 0.24 97 1000.4
20260906101557 59 51 16.0 29.0 0.02 0.25 0.24 97 1000.2
20260906101056 59 68 17.0 28.0 0.02 0.25 0.24 97 1000.3
20260906100556 59 85 18.0 29.0 0.04 0.25 0.24 97 1000.3
20260906100059 59 59 18.0 29.0 0.04 0.25 0.24 97 1000.2
20260906095552 59 90 18.0 28.0 0.05 0.25 0.24 97 1000.2
20260906094553 59 62 15.0 30.0 0.05 0.25 0.24 97 1000.2
20260906094052 59 81 16.0 30.0 0.05 0.25 0.24 96 1000.2
20260906093551 59 64 19.0 30.0 0.05 0.25 0.24 97 1000.3
20260906093051 59 81 17.0 28.0 0.05 0.25 0.24 96 1000.2
20260906092552 59 59 17.0 28.0 0.05 0.25 0.24 96 1000.3
20260906092049 59 30 18.0 28.0 0.05 0.25 0.24 96 1000.3
20260906091549 59 50 14.0 23.0 0.04 0.24 0.23 96 1000.2
20260906091048 59 55 13.0 23.0 0.04 0.23 0.22 96 1000.2
20260906090547 59 76 13.0 27.0 0.03 0.22 0.21 96 1000.3
20260906090048 59 98 16.0 33.0 0.02 0.21 0.20 96 1000.3
20260906085551 59 57 14.0 33.0 0.02 0.21 0.20 96 1000.2
20260906084551 59 82 17.0 31.0 0.01 0.20 0.19 97 1000.3
20260906084048 59 82 17.0 31.0 0.01 0.20 0.19 96 1000.3
20260906083547 59 70 14.0 26.0 0.01 0.20 0.19 97 1000.4
20260906083046 59 77 13.0 25.0 0.01 0.20 0.19 96 1000.4
20260906082545 59 70 14.0 24.0 0.01 0.20 0.19 96 1000.5
20260906082045 59 56 12.0 22.0 0.01 0.20 0.19 97 1000.4
20260906081546 59 76 11.0 23.0 0.01 0.20 0.19 96 1000.5
20260906081045 59 69 11.0 28.0 0.00 0.19 0.18 96 1000.5
20260906080545 59 44 11.0 28.0 0.00 0.19 0.18 97 1000.4
20260906080052 59 73 9.0 21.0 0.00 0.19 0.18 96 1000.3
20260906075547 59 139 9.0 23.0 0.00 0.19 0.18 96 1000.3
20260906074551 59 81 9.0 21.0 0.01 0.19 0.18 96 1000.5
20260906074047 59 64 8.0 20.0 0.01 0.19 0.18 96 1000.5
20260906073548 59 51 9.0 25.0 0.02 0.19 0.18 96 1000.5
20260906073048 59 64 9.0 24.0 0.02 0.19 0.18 96 1000.7
20260906072546 59 65 10.0 24.0 0.02 0.19 0.18 96 1000.7
20260906072046 59 115 7.0 29.0 0.02 0.19 0.18 96 1000.7
20260906071545 59 120 9.0 29.0 0.02 0.19 0.18 96 1000.8
20260906071042 59 151 9.0 19.0 0.02 0.19 0.18 96 1001.0
20260906070542 59 111 8.0 25.0 0.02 0.19 0.18 96 1001.1
20260906070042 58 148 7.0 28.0 0.02 0.19 0.18 96 1001.0
20260906065541 58 93 9.0 28.0 0.02 0.19 0.18 96 1001.1
20260906064536 58 49 7.0 23.0 0.01 0.18 0.17 96 1001.3
20260906064037 58 125 9.0 21.0 0.01 0.18 0.17 96 1001.2
20260906063541 58 96 7.0 25.0 0.00 0.17 0.16 96 1001.2
20260906063039 58 174 7.0 25.0 0.00 0.17 0.16 96 1001.2
20260906062534 58 195 8.0 22.0 0.00 0.17 0.16 96 1001.6
20260906062034 58 91 7.0 19.0 0.01 0.17 0.16 96 1001.5
20260906061534 58 93 7.0 21.0 0.02 0.17 0.16 96 1001.5
20260906061035 58 85 7.0 28.0 0.03 0.17 0.16 96 1001.6
20260906060533 58 140 8.0 28.0 0.05 0.17 0.16 96 1001.7
20260906060034 58 83 9.0 24.0 0.06 0.17 0.16 96 1001.7
20260906055531 58 216 9.0 26.0 0.07 0.17 0.16 96 1001.8
20260906054549 58 116 9.0 26.0 0.08 0.17 0.16 96 1002.1
20260906054031 58 141 9.0 24.0 0.08 0.17 0.16 96 1002.2
20260906053530 58 72 7.0 20.0 0.10 0.17 0.16 96 1002.3
20260906053030 58 112 8.0 19.0 0.12 0.17 0.16 96 1002.2
20260906052530 58 114 8.0 25.0 0.15 0.17 0.16 96 1002.0
20260906052028 58 108 4.0 25.0 0.16 0.17 0.16 96 1002.4
20260906051534 58 85 4.0 25.0 0.14 0.15 0.14 96 1002.3
20260906051027 58 76 7.0 20.0 0.13 0.14 0.13 96 1002.5
20260906050526 58 59 9.0 23.0 0.12 0.13 0.12 96 1002.8
20260906050030 58 107 6.0 23.0 0.11 0.12 0.11 96 1002.8
20260906045525 58 2 8.0 20.0 0.09 0.10 0.09 96 1002.9
20260906044524 58 145 5.0 26.0 0.08 0.09 0.08 96 1003.1
20260906044022 58 73 8.0 26.0 0.08 0.09 0.08 96 1003.5
20260906043523 58 123 6.0 22.0 0.07 0.08 0.07 96 1003.5
20260906043023 58 78 8.0 22.0 0.06 0.07 0.06 96 1003.4
20260906042522 57 130 8.0 26.0 0.02 0.03 0.02 96 1003.4
20260906042021 57 164 7.0 26.0 0.00 0.01 0.00 96 1003.2
20260906041521 57 45 9.0 26.0 0.00 0.01 0.00 96 1003.3
20260906041020 57 145 7.0 24.0 0.00 0.01 0.00 96 1003.4
20260906040520 57 84 8.0 26.0 0.00 0.01 0.00 96 1003.8
20260906040019 57 114 7.0 26.0 0.00 0.01 0.00 96 1003.9
20260906035521 57 74 9.0 23.0 0.00 0.01 0.00 96 1004.0
20260906034521 57 60 8.0 22.0 0.00 0.01 0.00 96 1004.1
20260906034017 57 173 7.0 23.0 0.00 0.01 0.00 95 1004.0
20260906033517 57 82 8.0 29.0 0.00 0.01 0.00 95 1003.9
20260906033018 57 129 9.0 29.0 0.00 0.01 0.00 95 1004.0
20260906032516 57 101 9.0 22.0 0.00 0.01 0.00 95 1004.2
20260906032015 57 146 9.0 22.0 0.00 0.01 0.00 95 1004.3
20260906031547 57 86 8.0 28.0 0.00 0.01 0.00 95 1004.3
20260906031017 57 313 10.0 28.0 0.01 0.01 0.00 95 1004.2
20260906030514 57 108 7.0 21.0 0.01 0.01 0.00 95 1004.2
20260906030012 57 147 8.0 22.0 0.01 0.01 0.00 95 1004.3
20260906025515 57 137 9.0 22.0 0.01 0.01 0.00 95 1004.6
20260906024534 57 103 5.0 28.0 0.01 0.01 0.00 95 1004.8
20260906024011 57 121 6.0 18.0 0.01 0.01 0.00 95 1004.9
20260906023513 57 68 7.0 18.0 0.01 0.01 0.00 95 1005.1
20260906023010 57 89 7.0 20.0 0.01 0.01 0.00 95 1005.2
20260906022508 57 60 6.0 21.0 0.01 0.01 0.01 95 1005.6
20260906022008 56 109 7.0 21.0 0.01 0.01 0.01 95 1005.5
20260906021508 56 81 7.0 26.0 0.01 0.01 0.01 95 1005.4
20260906021010 56 95 8.0 26.0 0.00 0.00 0.00 95 1005.5
20260906020507 56 82 7.0 23.0 0.00 0.00 0.00 95 1005.5
20260906020007 56 79 9.0 23.0 0.00 0.00 0.00 95 1005.5
20260906015508 56 162 9.0 21.0 0.00 0.00 0.00 95 1005.5
20260906014515 56 59 9.0 22.0 0.00 0.00 0.00 95 1005.8
20260906014005 56 70 9.0 23.0 0.00 0.00 0.00 95 1005.7
20260906013505 56 79 8.0 25.0 0.00 0.00 0.00 95 1005.6
20260906013005 56 89 12.0 25.0 0.00 0.00 0.00 94 1005.8
20260906012509 57 33 13.0 24.0 0.00 0.00 0.00 94 1005.7
20260906012006 57 81 9.0 24.0 0.00 0.00 0.00 94 1005.9
20260906011506 57 98 8.0 29.0 0.00 0.00 0.00 94 1006.0
20260906011003 57 157 8.0 25.0 0.00 0.00 0.00 94 1006.0
20260906010503 57 136 8.0 25.0 0.00 0.00 0.00 94 1006.3
20260906010003 57 114 9.0 22.0 0.00 0.00 0.00 94 1006.4
20260906005502 57 117 10.0 27.0 0.00 0.00 0.00 93 1006.5
20260906004502 57 65 13.0 29.0 0.00 0.00 0.00 93 1006.6
20260906004003 57 147 11.0 24.0 0.00 0.00 0.00 93 1006.7
20260906003503 57 76 12.0 24.0 0.00 0.00 0.00 93 1006.5
20260906003001 57 89 12.0 23.0 0.00 0.00 0.00 93 1006.4
20260906002501 57 359 9.0 26.0 0.00 0.00 0.00 94 1006.5
20260906002002 56 100 13.0 26.0 0.00 0.00 0.00 94 1006.7
20260906001501 56 111 9.0 25.0 0.00 0.00 0.00 94 1006.8
20260906001001 56 33 8.0 19.0 0.00 0.00 0.00 94 1006.7
20260906000501 56 58 7.0 28.0 0.00 0.00 0.00 94 1006.8
20260906000107 56 357 10.0 28.0 0.00 0.00 0.00 94 1006.7
20260905235603 56 232 8.0 22.0 0.00 0.00 0.00 94 1006.7
20260905235201 56 109 6.0 24.0 0.00 0.00 0.00 94 1006.7
20260905234606 56 351 6.0 24.0 0.00 0.00 0.00 94 1006.8
20260905234058 56 147 9.0 25.0 0.00 0.00 0.00 94 1007.1
20260905233558 56 59 6.0 26.0 0.00 0.00 0.00 94 1007.2
20260905233058 56 68 7.0 26.0 0.00 0.00 0.00 94 1007.3
20260905232557 56 107 9.0 19.0 0.00 0.00 0.00 94 1007.5
20260905232056 56 88 7.0 16.0 0.00 0.00 0.00 94 1007.6
20260905231557 56 141 7.0 21.0 0.00 0.00 0.00 94 1007.7
20260905231058 56 57 8.0 21.0 0.00 0.00 0.00 94 1007.6
20260905230559 56 122 6.0 25.0 0.00 0.00 0.00 94 1007.6
20260905230057 56 45 10.0 25.0 0.00 0.00 0.00 94 1007.7
20260905225555 56 154 6.0 22.0 0.00 0.00 0.00 94 1007.7
20260905225155 56 110 8.0 24.0 0.00 0.00 0.00 94 1007.8
20260905224556 56 69 10.0 24.0 0.00 0.00 0.00 94 1007.9
20260905224056 56 89 10.0 24.0 0.00 0.00 0.00 94 1007.9
20260905223555 56 86 9.0 26.0 0.00 0.00 0.00 93 1007.9
20260905223055 56 127 8.0 26.0 0.00 0.00 0.00 93 1008.1
20260905222555 56 51 10.0 25.0 0.00 0.00 0.00 94 1007.9
20260905222053 56 75 13.0 25.0 0.00 0.00 0.00 93 1008.0
20260905221553 56 64 10.0 21.0 0.00 0.00 0.00 93 1007.9
20260905221053 56 80 12.0 24.0 0.00 0.00 0.00 93 1008.0
20260905220552 56 79 12.0 24.0 0.00 0.00 0.00 93 1007.9
20260905220053 56 75 10.0 22.0 0.00 0.00 0.00 93 1008.0
20260905215553 56 42 11.0 29.0 0.00 0.00 0.00 93 1008.0
20260905215152 56 70 11.0 23.0 0.00 0.00 0.00 92 1008.1
20260905214554 56 72 11.0 23.0 0.00 0.00 0.00 92 1008.1
20260905214054 56 89 9.0 23.0 0.00 0.00 0.00 92 1008.2
20260905213557 56 72 9.0 23.0 0.00 0.00 0.00 92 1008.3
20260905213059 56 60 9.0 20.0 0.00 0.00 0.00 92 1008.3
20260905212553 56 95 9.0 20.0 0.00 0.00 0.00 92 1008.4
20260905212051 56 83 10.0 19.0 0.00 0.00 0.00 92 1008.4
20260905211605 56 53 8.0 22.0 0.00 0.00 0.00 92 1008.4
20260905211052 56 80 9.0 22.0 0.00 0.00 0.00 92 1008.6
20260905210551 56 82 9.0 23.0 0.00 0.00 0.00 91 1008.8
20260905210059 56 67 8.0 23.0 0.00 0.00 0.00 91 1008.8
20260905205549 56 59 13.0 27.0 0.00 0.00 0.00 91 1008.8
20260905205150 56 81 15.0 27.0 0.00 0.00 0.00 91 1008.8
20260905204550 56 62 16.0 27.0 0.00 0.00 0.00 91 1008.8
20260905204048 56 91 14.0 26.0 0.00 0.00 0.00 90 1008.8
20260905203546 56 70 12.0 29.0 0.00 0.00 0.00 90 1008.7
20260905203045 56 49 18.0 29.0 0.00 0.00 0.00 91 1008.7
20260905202544 56 68 16.0 27.0 0.00 0.00 0.00 91 1008.9
20260905202044 56 72 16.0 27.0 0.00 0.00 0.00 91 1009.0
20260905201551 56 76 14.0 25.0 0.00 0.00 0.00 91 1008.9
20260905201044 56 47 14.0 26.0 0.00 0.00 0.00 91 1009.0
20260905200544 56 98 15.0 26.0 0.00 0.00 0.00 91 1009.0
20260905200045 56 42 14.0 27.0 0.00 0.00 0.00 91 1009.1
20260905195543 56 51 17.0 27.0 0.00 0.00 0.00 90 1009.2
20260905195142 56 74 14.0 25.0 0.00 0.00 0.00 90 1009.2
20260905194543 56 77 16.0 25.0 0.00 0.00 0.00 90 1009.2
20260905194047 56 39 14.0 25.0 0.00 0.00 0.00 90 1009.3
20260905193547 56 91 15.0 26.0 0.00 0.00 0.00 90 1009.3
20260905193042 56 76 15.0 29.0 0.00 0.00 0.00 90 1009.2
20260905192542 56 73 15.0 29.0 0.00 0.00 0.00 89 1009.2
20260905192041 56 70 16.0 27.0 0.00 0.00 0.00 89 1009.2
20260905191541 56 62 15.0 27.0 0.00 0.00 0.00 89 1009.3
20260905191043 56 68 15.0 30.0 0.00 0.00 0.00 89 1009.2
20260905190540 57 103 18.0 30.0 0.00 0.00 0.00 88 1009.3
20260905190039 57 70 18.0 29.0 0.00 0.00 0.00 88 1009.4
20260905185538 57 95 16.0 25.0 0.00 0.00 0.00 88 1009.4
20260905185137 57 70 17.0 27.0 0.00 0.00 0.00 87 1009.6
20260905184537 57 87 16.0 27.0 0.00 0.00 0.00 87 1009.4
20260905184039 57 60 15.0 26.0 0.00 0.00 0.00 87 1009.5
20260905183535 58 102 15.0 26.0 0.00 0.00 0.00 85 1009.6
20260905183037 58 76 18.0 26.0 0.00 0.00 0.00 84 1009.6
20260905182533 58 45 16.0 25.0 0.00 0.00 0.00 85 1009.6
20260905182033 58 50 13.0 23.0 0.00 0.00 0.00 84 1009.7
20260905181531 58 311 14.0 22.0 0.00 0.00 0.00 84 1009.8
20260905181031 58 83 14.0 22.0 0.00 0.00 0.00 83 1009.8
20260905180534 59 48 12.0 22.0 0.00 0.00 0.00 83 1009.9
20260905180030 59 79 12.0 22.0 0.00 0.00 0.00 82 1010.0
20260905175529 59 72 13.0 21.0 0.00 0.00 0.00 82 1010.0
20260905175131 59 48 16.0 26.0 0.00 0.00 0.00 81 1010.0
20260905174532 59 84 17.0 26.0 0.00 0.00 0.00 81 1010.0
20260905174030 59 73 14.0 26.0 0.00 0.00 0.00 81 1010.1
20260905173532 59 62 15.0 24.0 0.00 0.00 0.00 81 1010.2
20260905173051 59 71 17.0 23.0 0.00 0.00 0.00 80 1010.2
20260905172529 59 61 11.0 24.0 0.00 0.00 0.00 82 1010.3
20260905172028 59 78 15.0 24.0 0.00 0.00 0.00 80 1010.3
20260905171529 59 72 14.0 25.0 0.00 0.00 0.00 81 1010.3
20260905171027 59 83 13.0 25.0 0.00 0.00 0.00 81 1010.3
20260905170527 59 41 14.0 23.0 0.00 0.00 0.00 81 1010.3
20260905170027 59 88 14.0 23.0 0.00 0.00 0.00 80 1010.4
20260905165526 59 72 13.0 22.0 0.00 0.00 0.00 81 1010.4
20260905165127 59 61 14.0 22.0 0.00 0.00 0.00 81 1010.5
20260905164526 59 50 11.0 23.0 0.00 0.00 0.00 82 1010.5
20260905164029 59 74 12.0 23.0 0.00 0.00 0.00 81 1010.5
20260905163526 59 73 13.0 21.0 0.00 0.00 0.00 81 1010.6
20260905163026 59 73 13.0 21.0 0.00 0.00 0.00 80 1010.6
20260905162529 59 77 11.0 20.0 0.00 0.00 0.00 82 1010.6
20260905162027 59 71 12.0 19.0 0.00 0.00 0.00 82 1010.6
20260905161525 59 58 11.0 21.0 0.00 0.00 0.00 82 1010.7
20260905161024 59 68 11.0 21.0 0.00 0.00 0.00 82 1010.8
20260905160523 59 78 11.0 21.0 0.00 0.00 0.00 82 1010.7
20260905160025 59 75 11.0 21.0 0.00 0.00 0.00 81 1010.9
20260905155523 59 48 11.0 19.0 0.00 0.00 0.00 82 1011.0
20260905155123 59 74 12.0 16.0 0.00 0.00 0.00 81 1011.1
20260905154522 59 55 8.0 15.0 0.00 0.00 0.00 82 1011.1
20260905154024 59 91 5.0 10.0 0.00 0.00 0.00 82 1011.2
20260905153522 59 87 5.0 10.0 0.00 0.00 0.00 82 1011.3
20260905153023 59 97 4.0 14.0 0.00 0.00 0.00 82 1011.2
20260905152522 60 59 6.0 14.0 0.00 0.00 0.00 82 1011.2
20260905152024 60 80 7.0 14.0 0.00 0.00 0.00 82 1011.2
20260905151520 60 75 7.0 14.0 0.00 0.00 0.00 81 1011.4
20260905151021 60 43 7.0 16.0 0.00 0.00 0.00 81 1011.4
20260905150520 61 88 6.0 16.0 0.00 0.00 0.00 81 1011.5
20260905150021 61 48 6.0 12.0 0.00 0.00 0.00 81 1011.3
20260905145519 61 103 5.0 12.0 0.00 0.00 0.00 80 1011.4
20260905145119 60 88 8.0 15.0 0.00 0.00 0.00 81 1011.6
20260905144520 60 66 9.0 15.0 0.00 0.00 0.00 81 1011.5
20260905144020 61 62 7.0 15.0 0.00 0.00 0.00 80 1011.7
20260905143520 61 88 6.0 15.0 0.00 0.00 0.00 80 1011.6
20260905143024 61 100 8.0 15.0 0.00 0.00 0.00 81 1011.6
20260905142518 61 83 5.0 16.0 0.00 0.00 0.00 81 1011.7
20260905142021 60 60 7.0 16.0 0.00 0.00 0.00 81 1011.7
20260905141526 61 78 8.0 15.0 0.00 0.00 0.00 81 1011.8
20260905141021 61 72 7.0 16.0 0.00 0.00 0.00 80 1011.7
20260905140520 61 86 8.0 16.0 0.00 0.00 0.00 80 1011.8
20260905140018 61 56 9.0 15.0 0.00 0.00 0.00 80 1011.9
20260905135517 60 100 8.0 14.0 0.00 0.00 0.00 81 1011.9
20260905135119 61 85 8.0 14.0 0.00 0.00 0.00 80 1012.0
20260905134517 61 117 8.0 14.0 0.00 0.00 0.00 81 1012.1
20260905134019 60 53 6.0 13.0 0.00 0.00 0.00 81 1012.1
20260905133516 60 85 6.0 13.0 0.00 0.00 0.00 81 1012.1
20260905133016 60 63 6.0 13.0 0.00 0.00 0.00 82 1012.1
20260905132517 60 112 5.0 10.0 0.00 0.00 0.00 82 1012.0
20260905132017 60 83 5.0 11.0 0.00 0.00 0.00 82 1012.0
20260905131520 60 93 6.0 14.0 0.00 0.00 0.00 82 1011.9
20260905131016 60 81 8.0 14.0 0.00 0.00 0.00 82 1011.9
20260905130516 60 73 6.0 13.0 0.00 0.00 0.00 82 1011.9
20260905130015 60 85 6.0 11.0 0.00 0.00 0.00 82 1011.9